Station BUZM3 - Buzzards Bay, MA Image indicating link to RSS feed of recent meteorological observations for station BUZM3


Conditions at BUZM3 as of
(3:00 am EDT)
0700 GMT on 04/23/2024:
     

Click on the graph icon in the table below to see a time series plot of the last five days of that observation.

5-day plot - Wind Direction Wind Direction (WDIR): S ( 190 deg true )
5-day plot - Wind Speed Wind Speed (WSPD): 12 kts
5-day plot - Wind Gust Wind Gust (GST): 13 kts
5-day plot - Atmospheric Pressure Atmospheric Pressure (PRES):30.17 in
5-day plot - Pressure Tendency Pressure Tendency (PTDY):+0.00 in ( Steady )
5-day plot - Air Temperature Air Temperature (ATMP): 44.2 °F
5-day plot - Wind Chill Wind Chill (CHILL): 37.6 °F
5-day plot - Wind Speed at 10 Meters Wind Speed at 10 meters (WSPD10M): 12 kts
5-day plot - Wind Speed at 20 Meters Wind Speed at 20 meters (WSPD20M): 12 kts
5-day plot -  Wind Speed, Wind Gust and Atmospheric Pressure Combined plot of Wind Speed, Gust, and Air Pressure
Continuous Winds
TIME
(EDT)
5-day plot - Wind Direction WDIR 5-day plot - Wind Speed WSPD
3:00 amS ( 183 deg ) 12 kts
2:50 amS ( 180 deg ) 12 kts
2:40 amS ( 177 deg ) 13 kts
2:30 amS ( 180 deg ) 12 kts
2:20 amS ( 184 deg ) 10 kts
2:10 amS ( 186 deg ) 9 kts
 
Peak gust during the measurement hour
TIME
(EDT)
5-day plot - Gust Direction GDR 5-day plot - Gust Speed GST
2:32 amS ( 180 deg ) 15 kts
Previous observations
TIME
(EDT)
5-day plot - Wind Direction
WDIR
 
5-day plot - Wind Speed
WSPD
kts
5-day plot - Wind Gust
GST
kts
5-day plot - Wave Height
WVHT
ft
5-day plot - Dominant Wave Period
DPD
sec
5-day plot - Average Wave Period
APD
sec
5-day plot - Mean Wave Direction
MWD
 
5-day plot - Atmospheric Pressure
PRES
in
5-day plot - Pressure Tendency
PTDY
in
5-day plot - Air Temperature
ATMP
°F
5-day plot - Water Temperature
WTMP
°F
5-day plot - Dew Point
DEWP
°F
5-day plot - Salinity
SAL
psu
5-day plot - Visibility
VIS
nmi
5-day plot - Tide (above MLLW)
TIDE
ft
2024-04-23 02:00 am S 8 8----30.16+0.00 44.6-----
2024-04-23 01:00 amSSW 4 5----30.16+0.00 44.6-----
2024-04-23 12:00 am S 11 13----30.16+0.02 44.8-----
2024-04-22 11:00 pm S 7 8----30.16+0.05 45.1-----
2024-04-22 10:00 pm S 8 9----30.16+0.08 45.3-----
2024-04-22 09:00 pmSSE 12 13----30.14+0.08 45.9-----
2024-04-22 08:00 pm S 8 9----30.11+0.05 46.0-----
2024-04-22 07:00 pm S 10 11----30.08+0.03 46.2-----
2024-04-22 06:00 pmSSW 13 14----30.06+0.01 46.4-----
2024-04-22 05:00 pm SW 16 18----30.05+0.00 46.4-----
2024-04-22 04:00 pm SW 16 18----30.05+0.01 46.4-----
2024-04-22 03:00 pm SW 16 17----30.05+0.01 45.7-----
2024-04-22 02:00 pm NW 11 12----30.05+0.02 49.8-----
2024-04-22 01:00 pm NW 11 12----30.04+0.01 48.9-----
2024-04-22 12:00 pm NW 4 5----30.04+0.03 48.4-----
2024-04-22 11:00 amNNW 10 11----30.03+0.03 46.4-----
2024-04-22 10:00 amNNW 10 11----30.03+0.04 45.1-----
2024-04-22 09:00 amNNW 16 17----30.01+0.04 44.1-----
2024-04-22 08:00 am NW 15 16----30.00+0.04 43.3-----
2024-04-22 07:00 am NW 18 20----29.98+0.04 43.7-----
2024-04-22 06:00 am NW 17 19----29.97+0.03 43.2-----
2024-04-22 05:00 amWNW 13 15----29.96+0.02 43.0-----
2024-04-22 04:00 amWNW 13 16----29.95+0.00 43.9-----
2024-04-22 03:00 amWNW 17 18----29.93+0.00 43.9-----